Location: Kawakawa
(35.3830°S, 174.0670°E)
Time: 21:26:16
(UTC+13:00)

Altair - Pass Details

Date: 07 December 2019
Orbit: 1502 x 1682 km, 47.2° (Epoch: 21 January)

Event Time Altitude Azimuth Distance (km) Brightness Sun altitude
Rises 16:41:25 0° 238° (WSW) 4,935 10.7 43.6°
Reaches altitude 10° 16:44:38 10° 235° (SW) 3,956 10.4 42.9°
Maximum altitude 16:54:50 67° 152° (SSE) 1,801 8.4 40.9°
Drops below altitude 10° 17:04:54 10° 69° (ENE) 3,913 9.3 38.8°
Sets 17:08:03 0° 66° (ENE) 4,879 9.7 38.2°
